Location: Frankfurt+(oder)
(51.7984°N, 12.2168°E)
Time: 09:01:03
(UTC+01:00)

ISS - Pass Details

Date: 13 November 2017
Orbit: 401 x 407 km, 51.6° (Epoch: 25 November)

Event Time Altitude Azimuth Distance (km) Brightness Sun altitude
Exits shadow 05:02:56 45° 135° (SE) 559 -2.9 -22.1°
Drops below altitude 10° 05:05:23 10° 114° (ESE) 1,454 -0.1 -21.7°
Sets 05:07:28 0° 111° (ESE) 2,311 1.3 -21.4°
